SCP
0 0 0 0 0 0 0 0 0 0 0 0 0 0 0 0 0 0 0 0 0 0 0 0 0 0 0 0 0 0 0 0 0 0 0 0 0 0
0 0 0 0 0 0 0 0 0 0 0 0 0 0 0 0 0 0 0 0 0 0 0 0 0 0 0 0 0 0 0 0 0 0 0 0 0 0
0 0 0 0 0 0 0 0 0 0 0 0 0 0 0 0 0 0 0 0 0 0 0 0 0 0 0 0 0 0 0 0 0 0 0 0 0 0
0 0 0 0 0 0 0 0 0 0 0 0 0 0 0 0 0 0 0 0 0 0 0 0 -0 -0 0 0 0 0 0 0 0 0 0 0 0 0
0 0 0 0 0 0 0 0 0 0 0 0 0 0 0 0 0 0 0 0 0 -0 0 -0 -0 -0 -0 0 0 0 0 0 0 0 0 0 0 0
0 0 0 0 0 0 0 0 0 0 0 0 0 0 0 0 0 0 0 0 0 0 0 0 0 -0 0 0 0 0 -0 -0 -0 0 0 0 -0 0
0 0 0 0 0 0 0 0 0 0 0 0 0 0 0 0 0 0 0 0 0 0 0 0 0 0 0 0 0 0 0 -0 0 0 -0 -0 -0 -0
0 0 0 0 0 0 0 0 0 0 0 0 0 0 0 0 0 0 0 0 0 0 0 0 0 0 0 0 0 0 -0 0 0 0 -0 -0 -0 -0
0 0 0 0 0 0 0 0 0 0 0 0 0 0 0 0 0 0 0 0 0 0 0 0 0 0 0 0 -0 0 0 0 0 0 0 0 -0 -0
0 0 0 0 0 0 0 0 0 0 0 0 0 0 0 0 0 0 0 0 0 0 0 0 0 0 0 0 0 -0 0 -0 0 0 0 0 0 0
0 0 0 0 0 0 0 0 0 0 0 0 0 0 0 0 0 0 0 0 0 0 0 0 0 0 0 0 0 0 0 0 -0 -0 0 0 0 0
0 0 0 0 0 0 0 0 0 0 0 0 0 0 0 0 0 0 0 0 0 0 0 0 0 0 0 0 0 0 0 0 0 -0 -0 -0 0 -0
0 0 0 0 0 0 0 0 0 0 0 0 0 0 0 0 0 0 0 0 0 0 0 0 0 0 0 0 0 0 0 0 0 0 -0 0 -0 0
0 0 0 0 0 0 0 0 0 0 0 0 0 0 0 0 0 0 0 0 0 0 0 0 0 0 0 0 0 0 0 0 0 0 0 -0 0 -0
0 0 0 0 0 0 0 0 0 0 0 0 0 0 0 0 0 0 0 0 0 0 0 0 0 0 0 0 0 0 0 0 0 0 0 0 -0 -0
0 0 0 0 0 0 0 0 0 0 0 0 0 0 0 0 0 0 0 0 0 0 0 0 0 0 0 0 0 0 0 0 0 0 0 0 0 0
0 0 0 0 0 0 0 0 0 0 0 0 0 0 0 0 0 0 0 0 0 0 0 0 0 0 0 0 0 0 0 0 0 0 0 0 0 0
0 0 0 0 0 0 0 0 0 0 0 0 0 0 0 0 0 0 0 0 0 0 0 0 0 0 0 0 0 0 0 0 0 0 0 0 0 0
0 0 0 0 0 0 0 0 0 0 0 0 0 0 0 0 0 0 0 0 0 0 0 0 0 0 0 0 0 0 0 0 0 0 0 0 0 0
0 0 0 0 0 0 0 0 0 0 0 0 0 0 0 0 0 0 0 0 0 0 0 0 0 0 0 0 0 0 0 0 0 0 0 0 0 0
0 0 0 0 0 0 0 0 0 0 0 0 0 0 0 0 0 0 0 0 0 0 0 0 0 0 0 0 0 0 0 0 0 0 0 0 0 0
0 0 0 0 0 0 0 0 0 0 0 0 0 0 0 0 0 0 0 0 0 0 0 0 0 0 0 0 0 0 0 0 0 0 0 0 0 0
0 0 0 0 0 0 0 0 0 0 0 0 0 0 0 0 0 0 0 0 0 0 0 0 0 0 0 0 0 0 0 0 0 0 0 0 0 0
Wind_Speed_500mb
31 34 37 39 41 42 45 51 57 64 69 57 89 92 86 87 84 84 88 87 85 82 79 75 76 79 82 84 83 82 81 80 79 78 79 79 77 76
34 37 39 40 40 42 43 43 45 49 49 79 82 80 82 81 82 84 83 86 83 84 84 79 79 79 79 80 81 80 79 79 79 79 79 77 74 75
36 38 39 40 40 40 41 42 44 49 59 72 70 72 72 79 81 82 85 85 88 84 85 83 80 76 76 77 79 79 78 77 76 76 76 76 78 79
35 37 38 38 37 38 41 43 46 46 53 67 65 67 69 77 81 79 81 82 82 81 88 82 78 81 79 78 80 82 81 76 71 69 72 76 76 76
33 34 35 35 36 37 39 42 44 46 45 52 60 61 67 70 72 73 75 79 80 78 81 76 79 79 79 84 89 86 79 65 70 68 66 73 77 77
30 31 31 32 35 39 41 43 44 43 43 46 53 59 61 64 65 76 81 84 85 82 74 73 74 75 81 99 99 88 76 72 71 69 60 61 76 78
27 27 28 32 37 41 42 41 39 38 40 45 47 54 56 60 66 72 79 84 78 78 72 71 71 75 80 93 92 90 88 83 85 99 105 99 82 66
23 25 30 35 38 39 40 36 29 32 35 38 43 45 45 50 58 65 69 76 83 75 71 62 59 67 70 75 76 81 83 91 93 99 99 109 117 139
23 25 28 34 36 34 33 28 25 26 31 33 34 36 38 45 55 59 59 61 60 60 70 57 49 54 57 65 70 70 75 85 91 93 97 100 106 116
23 26 28 31 30 30 28 25 24 25 28 24 26 27 30 39 47 52 55 54 55 47 65 56 48 39 47 54 60 63 68 76 80 83 87 90 90 96
22 25 26 26 24 27 25 27 26 21 21 20 18 19 26 36 46 48 47 54 57 43 60 56 57 52 31 49 53 56 62 69 74 77 80 81 79 80
21 24 25 24 21 22 25 28 29 26 21 12 11 18 26 35 43 42 42 45 49 36 51 56 57 55 29 43 46 50 54 60 65 69 73 76 76 76
24 23 22 20 19 18 20 24 27 26 22 18 16 21 27 32 39 39 39 40 39 41 47 48 52 53 44 48 40 47 50 51 55 58 63 65 64 66
28 26 24 25 22 19 21 24 25 26 24 22 25 28 33 36 33 33 35 39 40 40 41 44 45 47 48 47 40 44 43 42 48 52 55 52 51 52
32 32 31 29 26 23 27 26 28 28 29 31 34 35 37 38 33 27 30 33 35 37 43 43 41 40 39 38 39 43 44 34 46 46 48 49 50 47
34 32 35 34 32 30 29 30 30 30 32 33 34 35 38 38 37 31 32 36 35 28 33 35 38 36 33 32 33 33 34 30 36 38 39 39 40 42
36 33 33 34 33 32 33 35 35 36 37 37 38 39 37 35 36 37 35 37 40 39 35 30 31 34 32 29 27 29 28 28 28 29 29 31 32 34
39 37 36 34 33 34 36 39 42 41 41 40 40 40 39 36 36 38 35 37 41 38 38 36 32 26 26 26 24 23 24 25 24 25 25 25 25 25
40 39 38 36 36 38 39 40 42 42 42 40 39 39 40 38 36 36 37 36 34 33 33 32 30 28 25 22 20 21 23 22 24 25 25 26 27 25
43 41 39 39 39 40 41 43 43 42 40 41 39 36 39 39 39 41 38 32 31 28 26 25 25 24 23 22 22 22 22 23 22 24 24 26 25 24
43 42 41 41 40 41 42 44 44 41 38 38 41 37 40 41 42 38 33 31 28 23 21 21 21 21 21 22 21 23 22 23 25 26 26 26 23 22
45 44 43 42 42 43 44 44 43 42 38 37 42 41 42 41 37 32 31 27 24 23 21 22 22 22 23 23 24 25 24 23 24 25 28 29 26 20
47 46 44 43 44 44 45 44 42 42 40 39 42 42 41 37 34 30 30 28 25 23 22 21 23 24 24 25 27 27 27 26 25 25 27 27 30 31
Wind_Direction_500mb
325 326 326 324 325 325 326 327 329 324 326 325 329 339 342 343 347 346 347 347 349 349 340 332 327 324 321 318 316 313 311 308 306 301 299 296 294 289
325 325 323 323 323 324 324 323 322 319 314 323 335 339 343 344 347 350 351 355 356 354 350 342 334 330 328 325 321 319 316 312 308 303 300 298 294 290
325 323 321 322 324 325 325 324 325 325 322 327 339 342 343 344 349 356 1 4 2 359 359 352 344 335 332 330 327 323 319 314 311 308 306 301 293 287
323 322 323 324 325 327 328 330 331 334 335 334 341 345 347 350 354 359 6 8 4 7 2 358 356 355 348 343 336 330 323 320 320 318 312 305 299 292
323 324 325 327 331 333 333 334 338 343 340 336 340 345 348 353 357 2 4 3 4 7 6 5 8 5 4 2 360 351 346 341 333 331 328 326 314 302
324 327 331 333 336 338 339 341 344 341 342 342 343 341 348 357 3 359 359 1 0 5 11 14 18 19 26 28 19 19 24 16 12 14 7 342 332 316
326 331 336 337 342 344 345 343 340 343 343 342 336 342 353 358 1 359 358 358 6 4 15 18 21 23 28 39 31 34 33 31 32 32 39 39 28 24
327 335 338 341 343 345 339 332 341 337 334 326 333 340 353 357 357 358 360 2 1 5 15 23 22 25 29 40 38 28 26 27 28 29 31 33 35 36
325 334 338 340 339 336 328 336 338 337 325 321 335 348 355 356 353 353 358 359 359 6 12 21 23 29 28 25 25 27 28 23 24 27 30 29 36 37
323 329 334 334 330 325 331 334 333 336 327 331 343 349 352 350 350 350 349 354 6 7 9 7 12 13 18 16 16 21 24 25 26 26 29 32 33 43
315 320 323 324 324 327 335 329 336 341 339 330 335 340 343 345 344 343 346 355 3 7 6 1 3 358 346 2 8 14 18 23 25 29 29 34 38 43
312 312 312 314 324 329 328 329 332 341 346 322 309 322 329 334 331 335 346 355 355 1 358 358 360 1 351 349 349 4 12 20 24 27 30 30 32 41
294 294 295 307 314 314 313 320 321 323 328 321 302 307 315 320 326 331 344 347 348 351 349 350 346 351 356 347 347 350 1 10 17 22 24 28 29 36
288 289 296 302 303 300 301 303 308 304 301 309 310 309 311 316 321 329 337 337 340 341 343 342 340 343 347 350 348 350 349 359 8 13 21 28 38 42
293 295 295 295 294 293 295 298 294 292 294 302 307 309 313 317 322 327 327 331 335 334 336 334 336 337 341 344 347 349 352 358 4 11 20 27 40 49
287 292 296 297 295 293 290 292 292 293 293 297 303 309 313 314 311 315 322 327 329 332 326 326 328 332 334 340 346 347 356 7 8 19 26 27 32 39
283 288 290 289 289 290 288 287 290 291 293 296 298 299 300 302 305 311 319 325 326 328 329 329 328 330 331 331 339 346 354 359 9 16 16 20 24 29
289 293 291 287 286 283 279 280 285 287 288 290 294 296 295 295 301 308 319 327 324 325 327 329 335 336 333 321 329 345 348 350 358 7 4 5 8 16
286 287 287 286 284 281 279 278 279 283 285 287 289 291 293 296 301 302 307 313 316 320 323 328 335 339 339 333 329 342 345 347 351 348 352 356 359 3
280 282 283 282 281 281 280 280 279 282 287 290 289 290 289 292 294 298 304 306 310 316 322 329 333 333 334 336 336 338 339 341 342 345 348 348 350 351
277 278 278 278 278 276 276 277 278 279 283 287 286 288 286 291 295 297 298 302 305 310 317 320 322 324 327 327 328 332 333 331 332 336 338 341 341 334
274 275 275 274 275 275 276 276 277 280 281 283 282 285 287 292 290 289 290 292 295 301 308 312 316 319 321 322 322 322 322 320 320 322 326 329 332 320
272 271 272 273 273 274 275 276 279 281 282 283 284 286 286 285 282 280 283 285 288 293 299 303 307 309 310 312 311 311 312 312 309 309 313 315 316 315
Wind_Speed_850mb
31 34 37 39 41 42 45 51 57 64 69 57 89 92 86 87 84 84 88 87 85 82 79 75 76 79 82 84 83 82 81 80 79 78 79 79 77 76
34 37 39 40 40 42 43 43 45 49 49 79 82 80 82 81 82 84 83 86 83 84 84 79 79 79 79 80 81 80 79 79 79 79 79 77 74 75
36 38 39 40 40 40 41 42 44 49 59 72 70 72 72 79 81 82 85 85 88 84 85 83 80 76 76 77 79 79 78 77 76 76 76 76 78 79
35 37 38 38 37 38 41 43 46 46 53 67 65 67 69 77 81 79 81 82 82 81 88 82 78 81 79 78 80 82 81 76 71 69 72 76 76 76
33 34 35 35 36 37 39 42 44 46 45 52 60 61 67 70 72 73 75 79 80 78 81 76 79 79 79 84 89 86 79 65 70 68 66 73 77 77
30 31 31 32 35 39 41 43 44 43 43 46 53 59 61 64 65 76 81 84 85 82 74 73 74 75 81 99 99 88 76 72 71 69 60 61 76 78
27 27 28 32 37 41 42 41 39 38 40 45 47 54 56 60 66 72 79 84 78 78 72 71 71 75 80 93 92 90 88 83 85 99 105 99 82 66
23 25 30 35 38 39 40 36 29 32 35 38 43 45 45 50 58 65 69 76 83 75 71 62 59 67 70 75 76 81 83 91 93 99 99 109 117 139
23 25 28 34 36 34 33 28 25 26 31 33 34 36 38 45 55 59 59 61 60 60 70 57 49 54 57 65 70 70 75 85 91 93 97 100 106 116
23 26 28 31 30 30 28 25 24 25 28 24 26 27 30 39 47 52 55 54 55 47 65 56 48 39 47 54 60 63 68 76 80 83 87 90 90 96
22 25 26 26 24 27 25 27 26 21 21 20 18 19 26 36 46 48 47 54 57 43 60 56 57 52 31 49 53 56 62 69 74 77 80 81 79 80
21 24 25 24 21 22 25 28 29 26 21 12 11 18 26 35 43 42 42 45 49 36 51 56 57 55 29 43 46 50 54 60 65 69 73 76 76 76
24 23 22 20 19 18 20 24 27 26 22 18 16 21 27 32 39 39 39 40 39 41 47 48 52 53 44 48 40 47 50 51 55 58 63 65 64 66
28 26 24 25 22 19 21 24 25 26 24 22 25 28 33 36 33 33 35 39 40 40 41 44 45 47 48 47 40 44 43 42 48 52 55 52 51 52
32 32 31 29 26 23 27 26 28 28 29 31 34 35 37 38 33 27 30 33 35 37 43 43 41 40 39 38 39 43 44 34 46 46 48 49 50 47
34 32 35 34 32 30 29 30 30 30 32 33 34 35 38 38 37 31 32 36 35 28 33 35 38 36 33 32 33 33 34 30 36 38 39 39 40 42
36 33 33 34 33 32 33 35 35 36 37 37 38 39 37 35 36 37 35 37 40 39 35 30 31 34 32 29 27 29 28 28 28 29 29 31 32 34
39 37 36 34 33 34 36 39 42 41 41 40 40 40 39 36 36 38 35 37 41 38 38 36 32 26 26 26 24 23 24 25 24 25 25 25 25 25
40 39 38 36 36 38 39 40 42 42 42 40 39 39 40 38 36 36 37 36 34 33 33 32 30 28 25 22 20 21 23 22 24 25 25 26 27 25
43 41 39 39 39 40 41 43 43 42 40 41 39 36 39 39 39 41 38 32 31 28 26 25 25 24 23 22 22 22 22 23 22 24 24 26 25 24
43 42 41 41 40 41 42 44 44 41 38 38 41 37 40 41 42 38 33 31 28 23 21 21 21 21 21 22 21 23 22 23 25 26 26 26 23 22
45 44 43 42 42 43 44 44 43 42 38 37 42 41 42 41 37 32 31 27 24 23 21 22 22 22 23 23 24 25 24 23 24 25 28 29 26 20
47 46 44 43 44 44 45 44 42 42 40 39 42 42 41 37 34 30 30 28 25 23 22 21 23 24 24 25 27 27 27 26 25 25 27 27 30 31
Wind_Direction_850mb
325 326 326 324 325 325 326 327 329 324 326 325 329 339 342 343 347 346 347 347 349 349 340 332 327 324 321 318 316 313 311 308 306 301 299 296 294 289
325 325 323 323 323 324 324 323 322 319 314 323 335 339 343 344 347 350 351 355 356 354 350 342 334 330 328 325 321 319 316 312 308 303 300 298 294 290
325 323 321 322 324 325 325 324 325 325 322 327 339 342 343 344 349 356 1 4 2 359 359 352 344 335 332 330 327 323 319 314 311 308 306 301 293 287
323 322 323 324 325 327 328 330 331 334 335 334 341 345 347 350 354 359 6 8 4 7 2 358 356 355 348 343 336 330 323 320 320 318 312 305 299 292
323 324 325 327 331 333 333 334 338 343 340 336 340 345 348 353 357 2 4 3 4 7 6 5 8 5 4 2 360 351 346 341 333 331 328 326 314 302
324 327 331 333 336 338 339 341 344 341 342 342 343 341 348 357 3 359 359 1 0 5 11 14 18 19 26 28 19 19 24 16 12 14 7 342 332 316
326 331 336 337 342 344 345 343 340 343 343 342 336 342 353 358 1 359 358 358 6 4 15 18 21 23 28 39 31 34 33 31 32 32 39 39 28 24
327 335 338 341 343 345 339 332 341 337 334 326 333 340 353 357 357 358 360 2 1 5 15 23 22 25 29 40 38 28 26 27 28 29 31 33 35 36
325 334 338 340 339 336 328 336 338 337 325 321 335 348 355 356 353 353 358 359 359 6 12 21 23 29 28 25 25 27 28 23 24 27 30 29 36 37
323 329 334 334 330 325 331 334 333 336 327 331 343 349 352 350 350 350 349 354 6 7 9 7 12 13 18 16 16 21 24 25 26 26 29 32 33 43
315 320 323 324 324 327 335 329 336 341 339 330 335 340 343 345 344 343 346 355 3 7 6 1 3 358 346 2 8 14 18 23 25 29 29 34 38 43
312 312 312 314 324 329 328 329 332 341 346 322 309 322 329 334 331 335 346 355 355 1 358 358 360 1 351 349 349 4 12 20 24 27 30 30 32 41
294 294 295 307 314 314 313 320 321 323 328 321 302 307 315 320 326 331 344 347 348 351 349 350 346 351 356 347 347 350 1 10 17 22 24 28 29 36
288 289 296 302 303 300 301 303 308 304 301 309 310 309 311 316 321 329 337 337 340 341 343 342 340 343 347 350 348 350 349 359 8 13 21 28 38 42
293 295 295 295 294 293 295 298 294 292 294 302 307 309 313 317 322 327 327 331 335 334 336 334 336 337 341 344 347 349 352 358 4 11 20 27 40 49
287 292 296 297 295 293 290 292 292 293 293 297 303 309 313 314 311 315 322 327 329 332 326 326 328 332 334 340 346 347 356 7 8 19 26 27 32 39
283 288 290 289 289 290 288 287 290 291 293 296 298 299 300 302 305 311 319 325 326 328 329 329 328 330 331 331 339 346 354 359 9 16 16 20 24 29
289 293 291 287 286 283 279 280 285 287 288 290 294 296 295 295 301 308 319 327 324 325 327 329 335 336 333 321 329 345 348 350 358 7 4 5 8 16
286 287 287 286 284 281 279 278 279 283 285 287 289 291 293 296 301 302 307 313 316 320 323 328 335 339 339 333 329 342 345 347 351 348 352 356 359 3
280 282 283 282 281 281 280 280 279 282 287 290 289 290 289 292 294 298 304 306 310 316 322 329 333 333 334 336 336 338 339 341 342 345 348 348 350 351
277 278 278 278 278 276 276 277 278 279 283 287 286 288 286 291 295 297 298 302 305 310 317 320 322 324 327 327 328 332 333 331 332 336 338 341 341 334
274 275 275 274 275 275 276 276 277 280 281 283 282 285 287 292 290 289 290 292 295 301 308 312 316 319 321 322 322 322 322 320 320 322 326 329 332 320
272 271 272 273 273 274 275 276 279 281 282 283 284 286 286 285 282 280 283 285 288 293 299 303 307 309 310 312 311 311 312 312 309 309 313 315 316 315